Location: Big Meadows
(38.5260°N, 78.4400°W)
Time: 00:47:13
(UTC-04:00)

Amateur Radio Satellites - All Passes

Search period start: 22 October 2014 00:17
Search period end: 23 October 2014 00:17
Location: Big Meadows, 38.5260°N, 78.4400°W

Satellite Date Start Highest point End Downlink Frequencies (MHz)
Time Altitude Azimuth
SO-50 22 Oct 00:42:58 00:45:43 15° 252° (WSW) 00:48:28 436.795 FM
UOSAT-12 22 Oct 00:43:06 00:47:46 58° 56° (NE) 00:52:20 437.025 FM, 437.400 FM
MaSat-1 22 Oct 01:07:13 01:11:30 71° 295° (WNW) 01:15:25 437.345 MHz
RS-15 22 Oct 01:39:49 01:49:08 31° 323° (NW) 01:58:33 29.354 - 29.394 USB, Beacon 29.352 USB
Oscar 16 22 Oct 01:57:39 02:01:49 25° 95° (E) 02:05:57 437.025 USB, Beacon 2401.1428
Uribyol 2 22 Oct 02:12:36 02:15:12 14° 91° (E) 02:17:47 436.500 FM
ITAMSAT 1 22 Oct 02:17:34 02:20:25 15° 91° (E) 02:23:14 435.822 SSB
AO-Echo 22 Oct 02:19:14 02:23:15 22° 94° (E) 02:27:15 ?
UOSAT-12 22 Oct 02:24:50 02:27:23 15° 252° (WSW) 02:29:54 437.025 FM, 437.400 FM
JAS-1B 22 Oct 02:46:43 02:53:15 61° 102° (ESE) 03:01:02 435.800 - 435.900 CW/SSB
Oscar 19 22 Oct 02:50:57 02:56:06 82° 103° (ESE) 03:01:12 437.125 CW, 437.150 USB
AO-27 22 Oct 03:00:39 03:05:35 40° 98° (E) 03:10:28 436.795 MHz FM
Sapphire 22 Oct 03:34:12 03:35:39 11° 102° (ESE) 03:37:05 437.095 MHz 1200 baud AX-25 AFSK
Oscar 16 22 Oct 03:36:33 03:41:12 36° 291° (WNW) 03:45:50 437.025 USB, Beacon 2401.1428
Uribyol 2 22 Oct 03:49:56 03:55:06 65° 287° (WNW) 04:00:13 436.500 FM
PCSat 22 Oct 03:54:22 03:58:15 21° 106° (ESE) 04:02:10 145.825 MHz
ITAMSAT 1 22 Oct 03:55:08 04:00:18 62° 287° (WNW) 04:05:25 435.822 SSB
Gurwin Techsat 1B 22 Oct 03:55:59 04:01:19 71° 102° (ESE) 04:06:36 435.225 FM
AO-Echo 22 Oct 03:57:08 04:02:09 45° 289° (WNW) 04:07:11 ?
RS-15 22 Oct 04:00:29 04:06:41 16° 358° (N) 04:12:57 29.354 - 29.394 USB, Beacon 29.352 USB
TMSAT-1 22 Oct 04:09:21 04:14:39 70° 102° (ESE) 04:19:55 436.925 FM
Oscar 19 22 Oct 04:32:54 04:34:43 12° 300° (WNW) 04:36:31 437.125 CW, 437.150 USB
AO-7 22 Oct 04:34:02 04:41:04 30° 96° (E) 04:48:03 29.400 - 29.500 MHz
OPAL 22 Oct 04:35:48 04:40:02 26° 65° (ENE) 04:44:14 ?
JAS-1B 22 Oct 04:38:36 04:43:33 23° 295° (WNW) 04:49:07 435.800 - 435.900 CW/SSB
AO-27 22 Oct 04:40:43 04:44:49 24° 294° (WNW) 04:48:55 436.795 MHz FM
Sapphire 22 Oct 05:12:51 05:18:15 85° 297° (WNW) 05:23:42 437.095 MHz 1200 baud AX-25 AFSK
PCSat 22 Oct 05:36:00 05:41:15 51° 302° (WNW) 05:46:32 145.825 MHz
Gurwin Techsat 1B 22 Oct 05:37:50 05:40:38 15° 298° (WNW) 05:43:27 435.225 FM
Uosat F 22 Oct 05:39:03 05:44:07 73° 103° (ESE) 05:49:08 435.120 FM
TMSAT-1 22 Oct 05:51:05 05:53:57 15° 298° (WNW) 05:56:48 436.925 FM
JAS-2 22 Oct 06:10:45 06:18:08 45° 97° (E) 06:25:31 435.800 - 435.900 CW/SSB, 435.910 FM
OPAL 22 Oct 06:13:59 06:18:43 36° 260° (W) 06:23:26 ?
RS-15 22 Oct 06:15:25 06:24:34 28° 34° (NE) 06:33:56 29.354 - 29.394 USB, Beacon 29.352 USB
STRAND 1 22 Oct 06:15:26 06:19:23 23° 66° (ENE) 06:23:20 ?
AO-7 22 Oct 06:26:05 06:34:10 58° 293° (WNW) 06:42:16 29.400 - 29.500 MHz
Sapphire 22 Oct 06:59:42 07:02:29 14° 317° (NW) 07:05:18 437.095 MHz 1200 baud AX-25 AFSK
Hamsat 22 Oct 07:15:42 07:19:53 71° 284° (WNW) 07:24:04 145.90 MHz
Uosat F 22 Oct 07:19:55 07:22:15 13° 299° (WNW) 07:24:34 435.120 FM
SO-67 22 Oct 07:28:43 07:30:54 16° 94° (E) 07:33:03 435.3500 MHz FM
STRAND 1 22 Oct 07:53:29 07:58:17 41° 261° (W) 08:03:08 ?
JAS-2 22 Oct 07:55:57 08:02:55 39° 293° (WNW) 08:09:59 435.800 - 435.900 CW/SSB, 435.910 FM
Saudisat 1A 22 Oct 08:15:08 08:19:10 37° 115° (ESE) 08:23:14 436.775 MHz
AO-7 22 Oct 08:22:22 08:25:12 12° 314° (NW) 08:28:03 29.400 - 29.500 MHz
RS-15 22 Oct 08:27:28 08:38:44 85° 59° (ENE) 08:50:29 29.354 - 29.394 USB, Beacon 29.352 USB
HO-68 22 Oct 08:36:38 08:38:53 12° 88° (E) 08:41:07 435.675 MHz FM
SO-67 22 Oct 09:01:00 09:03:52 24° 288° (WNW) 09:06:42 435.3500 MHz FM
PANSAT 22 Oct 09:03:49 09:05:19 12° 165° (SSE) 09:06:48 not established
Saudisat 1A 22 Oct 09:55:20 09:58:50 23° 312° (NW) 10:02:21 436.775 MHz
UKube-1 22 Oct 10:12:22 10:15:58 25° 96° (E) 10:19:33 145.840 MHz, 145.915 MHz
HO-68 22 Oct 10:20:20 10:27:34 79° 105° (ESE) 10:34:45 435.675 MHz FM
RS-15 22 Oct 10:41:40 10:49:46 24° 258° (WSW) 10:58:10 29.354 - 29.394 USB, Beacon 29.352 USB
PANSAT 22 Oct 10:42:09 10:44:48 18° 178° (S) 10:47:27 not established
FUNcube-1 22 Oct 10:47:08 10:50:30 22° 94° (E) 10:53:47 145.950 - 145.970 MHz USB
MaSat-1 22 Oct 10:55:44 10:58:09 35° 250° (WSW) 11:00:24 437.345 MHz
Oscar 11 22 Oct 10:55:59 11:00:18 74° 102° (ESE) 11:04:35 145.825 FM, Beacon 2401.500 USB
ZACube-1 22 Oct 11:37:13 11:41:32 89° 103° (ESE) 11:45:43 437.345 MHz
UKube-1 22 Oct 11:48:25 11:52:05 27° 291° (WNW) 11:55:45 145.840 MHz, 145.915 MHz
KITSAT 1 22 Oct 12:08:38 12:15:26 31° 106° (ESE) 12:22:15 435.175 FM
HO-68 22 Oct 12:09:35 12:14:27 20° 303° (WNW) 12:19:20 435.675 MHz FM
PANSAT 22 Oct 12:22:10 12:24:19 15° 191° (S) 12:26:28 not established
FUNcube-1 22 Oct 12:23:13 12:26:51 27° 290° (WNW) 12:30:24 145.950 - 145.970 MHz USB
Oscar 19 22 Oct 12:30:54 12:32:53 12° 61° (ENE) 12:34:52 437.125 CW, 437.150 USB
PCSat 22 Oct 12:43:21 12:46:28 15° 44° (NE) 12:49:34 145.825 MHz
ISS 22 Oct 13:12:37 13:15:12 21° 131° (SE) 13:17:48 145.800 FM
Oscar 16 22 Oct 13:13:10 13:17:42 32° 69° (ENE) 13:22:15 437.025 USB, Beacon 2401.1428
SO-50 22 Oct 13:15:10 13:18:53 26° 112° (ESE) 13:22:40 436.795 FM
Uribyol 2 22 Oct 13:28:47 13:32:28 20° 64° (ENE) 13:36:09 436.500 FM
AO-Echo 22 Oct 13:31:11 13:34:55 23° 66° (ENE) 13:38:45 ?
JAS-1B 22 Oct 13:32:20 13:37:58 41° 70° (ENE) 13:43:15 435.800 - 435.900 CW/SSB
ITAMSAT 1 22 Oct 13:33:59 13:37:46 21° 64° (ENE) 13:41:33 435.822 SSB
Gurwin Techsat 1B 22 Oct 13:39:51 13:41:47 12° 60° (ENE) 13:43:42 435.225 FM
TMSAT-1 22 Oct 13:53:05 13:54:50 12° 60° (ENE) 13:56:35 436.925 FM
Sapphire 22 Oct 14:02:20 14:07:41 56° 59° (ENE) 14:13:00 437.095 MHz 1200 baud AX-25 AFSK
KITSAT 1 22 Oct 14:02:28 14:10:22 57° 304° (NW) 14:18:20 435.175 FM
Oscar 19 22 Oct 14:06:21 14:11:31 81° 257° (WSW) 14:16:41 437.125 CW, 437.150 USB
AO-27 22 Oct 14:17:20 14:22:22 53° 72° (ENE) 14:27:27 436.795 MHz FM
PCSat 22 Oct 14:25:09 14:30:37 87° 243° (WSW) 14:36:01 145.825 MHz
ISS 22 Oct 14:48:35 14:51:43 38° 327° (NNW) 14:54:53 145.800 FM
Oscar 16 22 Oct 14:52:36 14:57:01 28° 264° (W) 15:01:27 437.025 USB, Beacon 2401.1428
UOSAT-12 22 Oct 14:53:36 14:57:18 24° 111° (ESE) 15:01:04 437.025 FM, 437.400 FM
SO-50 22 Oct 14:55:14 14:59:17 32° 309° (NW) 15:03:27 436.795 FM
Oscar 10/S400 22 Oct 14:55:45 15:13:50 48° 157° (SSE) 15:41:59 145.825 - 145.975 CW/USB, Beacon 145.810 USB
Uribyol 2 22 Oct 15:06:30 15:11:32 50° 260° (W) 15:16:37 436.500 FM
AO-Echo 22 Oct 15:08:57 15:13:25 38° 263° (W) 15:18:03 ?
ITAMSAT 1 22 Oct 15:11:53 15:16:53 47° 260° (W) 15:21:55 435.822 SSB
Gurwin Techsat 1B 22 Oct 15:15:39 15:20:58 86° 257° (WSW) 15:26:19 435.225 FM
JAS-1B 22 Oct 15:23:55 15:28:47 24° 264° (W) 15:33:23 435.800 - 435.900 CW/SSB
TMSAT-1 22 Oct 15:28:39 15:33:57 88° 257° (WSW) 15:39:17 436.925 FM
AO-7 22 Oct 15:31:35 15:38:55 37° 61° (ENE) 15:46:16 29.400 - 29.500 MHz
Sapphire 22 Oct 15:46:57 15:50:37 19° 255° (WSW) 15:54:16 437.095 MHz 1200 baud AX-25 AFSK
AO-27 22 Oct 15:58:50 16:02:11 17° 268° (W) 16:05:32 436.795 MHz FM
KITSAT 1 22 Oct 16:03:15 16:07:45 16° 328° (NNW) 16:12:15 435.175 FM
JAS-2 22 Oct 16:24:46 16:27:51 14° 56° (NE) 16:31:05 435.800 - 435.900 CW/SSB, 435.910 FM
ISS 22 Oct 16:28:01 16:29:10 11° 346° (NNW) 16:30:20 145.800 FM
UOSAT-12 22 Oct 16:32:57 16:37:14 36° 308° (NW) 16:41:37 437.025 FM, 437.400 FM
Saudisat 1A 22 Oct 16:43:16 16:46:47 23° 48° (NE) 16:50:17 436.775 MHz
Uosat F 22 Oct 16:50:49 16:55:49 86° 75° (ENE) 17:00:53 435.120 FM
AO-7 22 Oct 17:23:32 17:31:27 49° 259° (WSW) 17:39:25 29.400 - 29.500 MHz
JAS-2 22 Oct 18:06:03 18:11:46 88° 256° (WSW) 18:18:20 435.800 - 435.900 CW/SSB, 435.910 FM
Hamsat 22 Oct 18:07:17 18:11:28 66° 76° (ENE) 18:15:38 145.90 MHz
Saudisat 1A 22 Oct 18:22:21 18:26:28 39° 245° (WSW) 18:30:33 436.775 MHz
OPAL 22 Oct 18:24:51 18:29:48 66° 104° (ESE) 18:34:41 ?
SO-67 22 Oct 19:31:22 19:34:47 78° 77° (ENE) 19:38:14 435.3500 MHz FM
ISS 22 Oct 19:42:08 19:44:51 22° 27° (NNE) 19:47:33 145.800 FM
JAS-2 22 Oct 19:56:59 19:58:01 10° 276° (W) 19:59:03 435.800 - 435.900 CW/SSB, 435.910 FM
KITSAT 1 22 Oct 20:03:09 20:07:40 16° 32° (NNE) 20:12:10 435.175 FM
STRAND 1 22 Oct 20:05:07 20:10:18 76° 103° (ESE) 20:15:26 ?
OPAL 22 Oct 20:05:28 20:08:06 15° 300° (WNW) 20:10:43 ?
HO-68 22 Oct 20:47:05 20:53:55 51° 68° (ENE) 21:00:48 435.675 MHz FM
RS-15 22 Oct 20:47:34 20:49:32 11° 95° (E) 20:51:29 29.354 - 29.394 USB, Beacon 29.352 USB
UKube-1 22 Oct 21:07:03 21:10:06 19° 66° (ENE) 21:13:11 145.840 MHz, 145.915 MHz
ISS 22 Oct 21:18:28 21:21:42 47° 224° (SW) 21:24:54 145.800 FM
FUNcube-1 22 Oct 21:42:28 21:45:32 18° 67° (ENE) 21:48:35 145.950 - 145.970 MHz USB
STRAND 1 22 Oct 21:46:31 21:48:48 13° 299° (WNW) 21:51:06 ?
SO-50 22 Oct 21:47:45 21:51:23 21° 46° (NE) 21:55:03 436.795 FM
Oscar 11 22 Oct 21:49:28 21:53:38 47° 73° (ENE) 21:57:47 145.825 FM, Beacon 2401.500 USB
KITSAT 1 22 Oct 21:57:05 22:05:02 57° 56° (NE) 22:12:55 435.175 FM
ZACube-1 22 Oct 22:31:39 22:36:11 60° 75° (ENE) 22:40:41 437.345 MHz
HO-68 22 Oct 22:35:50 22:41:50 29° 264° (W) 22:47:53 435.675 MHz FM
UKube-1 22 Oct 22:42:01 22:46:01 36° 262° (W) 22:50:03 145.840 MHz, 145.915 MHz
RS-15 22 Oct 22:48:44 22:59:34 65° 114° (ESE) 23:10:17 29.354 - 29.394 USB, Beacon 29.352 USB
FUNcube-1 22 Oct 23:17:12 23:21:34 43° 261° (W) 23:25:55 145.950 - 145.970 MHz USB
UOSAT-12 22 Oct 23:24:27 23:27:39 18° 44° (NE) 23:30:48 437.025 FM, 437.400 FM
SO-50 22 Oct 23:27:31 23:32:15 54° 243° (WSW) 23:37:00 436.795 FM
Oscar 11 22 Oct 23:27:51 23:30:02 14° 268° (W) 23:32:14 145.825 FM, Beacon 2401.500 USB
KITSAT 1 22 Oct 23:53:11 23:59:58 31° 254° (WSW) 00:06:45 435.175 FM
ZACube-1 23 Oct 00:11:06 00:12:54 12° 269° (W) 00:14:43 437.345 MHz
